TimeEST,TemperatureF,Dew PointF,Humidity,Sea Level PressureIn,VisibilityMPH,Wind Direction,Wind SpeedMPH,Gust SpeedMPH,PrecipitationIn,Events,Conditions,WindDirDegrees,DateUTC
12:53 AM,52.0,39.0,61,30.09,10.0,NW,12.7,-,N/A,,Partly Cloudy,320,2013-02-17 05:53:00
1:53 AM,53.1,37.9,57,30.09,10.0,NW,15.0,24.2,N/A,,Clear,310,2013-02-17 06:53:00
2:53 AM,50.0,36.0,59,30.10,10.0,NNW,16.1,24.2,N/A,,Clear,330,2013-02-17 07:53:00
3:53 AM,48.9,33.1,54,30.11,10.0,NNW,15.0,25.3,N/A,,Clear,340,2013-02-17 08:53:00
4:53 AM,46.9,27.0,46,30.14,10.0,NNW,23.0,28.8,N/A,,Clear,340,2013-02-17 09:53:00
5:53 AM,45.0,21.9,40,30.17,10.0,NNW,17.3,-,N/A,,Clear,330,2013-02-17 10:53:00
6:53 AM,44.1,19.9,38,30.19,10.0,NNW,15.0,23.0,N/A,,Scattered Clouds,340,2013-02-17 11:53:00
7:53 AM,45.0,19.0,36,30.22,10.0,NNW,15.0,21.9,N/A,,Scattered Clouds,330,2013-02-17 12:53:00
8:53 AM,48.0,17.1,29,30.25,10.0,NNW,19.6,27.6,N/A,,Partly Cloudy,340,2013-02-17 13:53:00
9:53 AM,51.1,14.0,23,30.27,10.0,NNW,25.3,31.1,N/A,,Partly Cloudy,340,2013-02-17 14:53:00
10:53 AM,53.1,16.0,23,30.28,10.0,NNW,19.6,28.8,N/A,,Partly Cloudy,340,2013-02-17 15:53:00
11:53 AM,54.0,17.1,23,30.27,10.0,NNW,13.8,25.3,N/A,,Partly Cloudy,340,2013-02-17 16:53:00
12:53 PM,55.9,17.1,22,30.26,10.0,NW,17.3,23.0,N/A,,Partly Cloudy,310,2013-02-17 17:53:00
1:53 PM,57.0,17.1,21,30.25,10.0,North,16.1,20.7,N/A,,Partly Cloudy,350,2013-02-17 18:53:00
2:53 PM,57.9,19.0,22,30.24,10.0,NNW,12.7,21.9,N/A,,Partly Cloudy,330,2013-02-17 19:53:00
3:53 PM,57.0,19.9,24,30.24,10.0,North,10.4,-,N/A,,Partly Cloudy,350,2013-02-17 20:53:00
4:53 PM,55.9,24.1,29,30.25,10.0,North,12.7,-,N/A,,Partly Cloudy,10,2013-02-17 21:53:00
5:53 PM,53.1,25.0,34,30.27,10.0,NNE,10.4,-,N/A,,Partly Cloudy,20,2013-02-17 22:53:00
6:53 PM,51.1,28.9,43,30.28,10.0,North,8.1,-,N/A,,Partly Cloudy,350,2013-02-17 23:53:00
7:53 PM,48.9,32.0,52,30.30,10.0,NNW,8.1,-,N/A,,Partly Cloudy,330,2013-02-18 00:53:00
8:53 PM,46.9,34.0,61,30.30,10.0,NW,6.9,-,N/A,,Partly Cloudy,320,2013-02-18 01:53:00
9:53 PM,48.0,34.0,58,30.30,10.0,NW,9.2,-,N/A,,Partly Cloudy,320,2013-02-18 02:53:00
10:53 PM,46.9,34.0,61,30.30,10.0,NW,9.2,-,N/A,,Partly Cloudy,310,2013-02-18 03:53:00